This is the latest recevied weather packets stored in our database for station/object DL6MAA-11. If no packets are shown the sender has not sent any weather packets the latest 10 day(s).
| Time | Temp. | Humidity | Pressure | Rain* | Wind** | Luminosity | Snow |
|---|---|---|---|---|---|---|---|
| 1777750640 | 16.67° C | 52% | 1015.6 hPa | 0 mm | - | 0 W/m² | - |
| 1777750326 | 17.22° C | 52% | 1015.6 hPa | 0 mm | - | 0 W/m² | - |
| 1777750029 | 17.22° C | 51% | 1015.6 hPa | 0 mm | - | 0 W/m² | - |
| 1777749728 | 17.22° C | 50% | 1015.6 hPa | 0 mm | - | 0 W/m² | - |
| 1777749428 | 17.78° C | 49% | 1015.6 hPa | 0 mm | - | 0 W/m² | - |
| 1777749134 | 17.78° C | 48% | 1014.8 hPa | 0 mm | - | 0 W/m² | - |
| 1777748830 | 18.33° C | 47% | 1014.8 hPa | 0 mm | - | 0 W/m² | - |
| 1777748522 | 18.33° C | 46% | 1014.8 hPa | 0 mm | - | 0 W/m² | - |
| 1777748227 | 18.89° C | 46% | 1014.7 hPa | 0 mm | - | 0 W/m² | - |
| 1777747933 | 18.89° C | 45% | 1014.7 hPa | 0 mm | - | 0 W/m² | - |
| 1777747626 | 19.44° C | 45% | 1014.7 hPa | 0 mm | - | 0 W/m² | - |
| 1777747333 | 20° C | 44% | 1015.3 hPa | 0 mm | - | 0 W/m² | - |
| 1777747018 | 20° C | 43% | 1015.3 hPa | 0 mm | - | 0 W/m² | - |
| 1777746728 | 20° C | 43% | 1015.3 hPa | 0 mm | - | 0 W/m² | - |
| 1777746423 | 20° C | 42% | 1014.3 hPa | 0 mm | - | 0 W/m² | - |
| 1777746129 | 20.56° C | 42% | 1014.3 hPa | 0 mm | - | 11 W/m² | - |
| 1777745837 | 20.56° C | 41% | 1014.3 hPa | 0 mm | - | 14 W/m² | - |
| 1777745540 | 20.56° C | 41% | 1014.8 hPa | 0 mm | - | 19 W/m² | - |
| 1777745226 | 20.56° C | 41% | 1014.8 hPa | 0 mm | - | 23 W/m² | - |
| 1777744932 | 20.56° C | 41% | 1014.8 hPa | 0 mm | - | 23 W/m² | - |
| 1777744628 | 21.11° C | 40% | 1014.7 hPa | 0 mm | - | 30 W/m² | - |
| 1777744329 | 21.11° C | 40% | 1014.7 hPa | 0 mm | - | 33 W/m² | - |
| 1777744038 | 21.11° C | 40% | 1014.7 hPa | 0 mm | - | 35 W/m² | - |
| 1777743741 | 21.11° C | 39% | 1014.8 hPa | 0 mm | - | 35 W/m² | - |
| 1777743426 | 21.67° C | 38% | 1014.8 hPa | 0 mm | - | 39 W/m² | - |
* Rain since midnight (hover to see other rain measurements)
** Current wind speed in m/s (hover to see current wind gust speed)